PDT,Max TemperatureF,Mean TemperatureF,Min TemperatureF,Max Dew PointF,MeanDew PointF,Min DewpointF,Max Humidity, Mean Humidity, Min Humidity, Max Sea Level PressureIn, Mean Sea Level PressureIn, Min Sea Level PressureIn, Max VisibilityMiles, Mean VisibilityMiles, Min VisibilityMiles, Max Wind SpeedMPH, Mean Wind SpeedMPH, Max Gust SpeedMPH,PrecipitationIn, CloudCover, Events, WindDirDegrees
2012-8-1,101,79,56,54,48,33,83,47,11,30.02,29.97,29.91,10,10,10,14,3,17,0.00,0,,66
2012-8-2,102,79,55,53,49,41,83,49,14,29.97,29.90,29.81,10,10,10,14,3,20,0.00,0,,174
2012-8-3,100,77,53,55,50,45,72,47,21,29.86,29.80,29.73,10,10,10,16,4,22,0.00,0,,136
2012-8-4,81,67,53,58,53,49,83,63,42,29.90,29.85,29.78,10,10,10,22,5,30,T,0,,146
2012-8-5,90,73,56,58,55,53,93,64,34,30.06,29.98,29.92,10,10,10,17,5,22,0.00,1,,141
2012-8-6,94,73,52,57,52,46,96,59,21,30.13,30.07,29.99,10,8,0,12,2,15,0.00,2,Fog,13
2012-8-7,93,73,52,51,46,39,83,50,16,30.06,30.01,29.95,10,10,10,14,3,20,0.00,0,,19
2012-8-8,100,77,53,50,44,29,77,43,9,30.02,29.96,29.89,10,10,10,13,2,16,0.00,0,,350
2012-8-9,102,78,54,53,48,35,77,44,10,29.95,29.89,29.83,10,10,10,13,3,17,0.00,0,,354
2012-8-10,103,79,55,52,48,37,77,45,12,29.86,29.79,29.71,10,10,10,12,2,16,0.00,0,,348
2012-8-11,107,82,56,56,49,27,77,42,6,29.78,29.73,29.66,10,10,10,16,3,20,0.00,0,,129
2012-8-12,106,81,55,54,47,34,77,43,9,29.82,29.78,29.72,10,10,10,13,3,21,0.00,0,,98
2012-8-13,107,83,59,53,46,36,56,35,13,29.83,29.77,29.70,10,10,10,13,3,17,0.00,0,,111
2012-8-14,100,82,63,54,50,45,67,43,18,29.81,29.75,29.70,10,10,10,12,3,16,0.00,0,,152
2012-8-15,98,80,62,53,51,44,72,45,17,29.86,29.78,29.73,10,10,10,16,6,22,0.00,0,,148
2012-8-16,102,78,54,53,47,38,77,44,11,29.93,29.88,29.81,10,10,10,13,4,15,0.00,0,,156
2012-8-17,101,77,52,48,41,34,83,47,11,29.97,29.92,29.86,10,10,10,16,2,18,0.00,0,,323
2012-8-18,95,77,58,49,45,39,62,39,15,29.94,29.91,29.87,10,10,10,14,4,21,0.00,0,,342
2012-8-19,96,74,52,50,45,34,83,49,15,29.94,29.90,29.84,10,10,10,14,3,18,0.00,0,,351
2012-8-20,100,77,53,51,44,36,77,45,12,29.90,29.86,29.80,10,10,9,14,3,18,0.00,0,,337
2012-8-21,94,74,53,52,47,40,72,44,15,29.89,29.85,29.82,10,10,10,15,3,20,0.00,0,,335
2012-8-22,96,75,54,54,52,49,89,56,22,29.88,29.85,29.79,10,10,10,15,4,22,0.00,0,,141
2012-8-23,96,75,54,53,50,45,83,51,19,29.90,29.85,29.78,10,10,10,12,2,15,0.00,0,,93
2012-8-24,95,74,52,52,48,44,83,52,20,29.88,29.82,29.76,10,10,10,14,3,20,0.00,0,,106
2012-8-25,93,72,51,52,49,44,89,55,21,29.84,29.79,29.71,10,10,10,12,5,16,0.00,0,,140
2012-8-26,81,64,46,49,46,42,86,58,30,29.99,29.91,29.81,10,10,10,14,4,17,0.00,0,,351
2012-8-27,88,69,50,54,50,46,83,57,30,30.05,30.00,29.94,10,10,10,16,4,23,0.00,0,,359
2012-8-28,89,71,52,52,48,45,83,54,25,30.03,29.99,29.95,10,10,10,16,3,22,0.00,0,Rain,9
2012-8-29,96,72,48,48,44,37,86,50,14,29.97,29.88,29.78,10,9,4,13,2,17,0.00,0,,9
2012-8-30,97,74,50,48,44,31,74,42,10,29.81,29.76,29.68,10,10,10,15,3,20,0.00,0,,165
2012-8-31,83,67,50,52,49,46,89,59,28,29.93,29.85,29.78,10,10,10,14,4,20,0.00,1,,157